Tracking 30116 objects as of 10-Feb-2025
HD Live streaming from Space Station
objects crossing your sky now

QIANFAN-38

Track QIANFAN-38 now!
10-day predictions
QIANFAN-38 is classified as:


NORAD ID: 62239
Int'l Code: 2024-232C
Perigee: 836.7 km
Apogee: 858.6 km
Inclination: 89.0 °
Period: 101.7 minutes
Semi major axis: 7218 km
RCS: Unknown
Launch date: December 5, 2024
Source: People's Republic of China (PRC)
Launch site: Taiyaun Space Center, China (TSC)
Your satellite tracking list
Your tracking list is empty




NASA's NSSDC Master Catalog

Two Line Element Set (TLE):
1 62239U 24232C   25041.50418188  .00000810  00000-0  40721-3 0  9998
2 62239  88.9880  72.4192 0015150   8.0201 352.1225 14.15529051 57895
Source of the keplerian elements: AFSPC